Year,Month,Day,Hour,Minute,Value (Times are PST for temperature in C)
2012,04,23,06,52,8.30
2012,04,23,06,53,8.30
2012,04,23,06,54,8.30
2012,04,23,06,55,8.40
2012,04,23,06,56,8.40
2012,04,23,06,57,8.40
2012,04,23,06,58,8.50
2012,04,23,06,59,8.50
2012,04,23,07,00,8.60
2012,04,23,07,01,8.60
2012,04,23,07,02,8.60
2012,04,23,07,03,8.70
2012,04,23,07,04,8.70
2012,04,23,07,05,8.70
2012,04,23,07,06,8.70
2012,04,23,07,07,8.70
2012,04,23,07,08,8.70
2012,04,23,07,09,8.70
2012,04,23,07,10,8.70
2012,04,23,07,11,8.70
2012,04,23,07,12,8.70
2012,04,23,07,13,8.80
2012,04,23,07,14,8.90
2012,04,23,07,15,8.90
2012,04,23,07,16,8.90
2012,04,23,07,17,8.90
2012,04,23,07,18,9.00
2012,04,23,07,19,9.00
2012,04,23,07,20,9.00
2012,04,23,07,21,9.10
2012,04,23,07,22,9.10
2012,04,23,07,23,9.10
2012,04,23,07,24,9.20
2012,04,23,07,25,9.20
2012,04,23,07,26,9.20
2012,04,23,07,27,9.20
2012,04,23,07,28,9.20
2012,04,23,07,29,9.20
2012,04,23,07,30,9.20
2012,04,23,07,31,9.30
2012,04,23,07,32,9.30
2012,04,23,07,33,9.30
2012,04,23,07,34,9.40
2012,04,23,07,35,9.40
2012,04,23,07,36,9.40
2012,04,23,07,37,9.50
2012,04,23,07,38,9.50
2012,04,23,07,39,9.60
2012,04,23,07,40,9.60
2012,04,23,07,41,9.70
2012,04,23,07,42,9.70
2012,04,23,07,43,9.70
2012,04,23,07,44,9.80
2012,04,23,07,45,9.90
2012,04,23,07,46,9.90
2012,04,23,07,47,10.00
2012,04,23,07,48,10.10
2012,04,23,07,49,10.10
2012,04,23,07,50,10.20
2012,04,23,07,51,10.20
2012,04,23,07,52,10.20
2012,04,23,07,53,10.30
2012,04,23,07,54,10.30
2012,04,23,07,55,10.30
2012,04,23,07,56,10.20
2012,04,23,07,57,10.20
2012,04,23,07,58,10.10
2012,04,23,07,59,10.10
2012,04,23,08,00,10.10
2012,04,23,08,01,10.10
2012,04,23,08,02,10.10
2012,04,23,08,03,10.00
2012,04,23,08,04,9.90
2012,04,23,08,05,9.90
2012,04,23,08,06,9.90
2012,04,23,08,07,9.90
2012,04,23,08,08,9.90
2012,04,23,08,09,9.90
2012,04,23,08,10,9.90
2012,04,23,08,11,9.90
2012,04,23,08,12,9.90
2012,04,23,08,13,9.90
2012,04,23,08,14,9.90
2012,04,23,08,15,9.90
2012,04,23,08,16,9.90
2012,04,23,08,17,9.90
2012,04,23,08,18,10.00
2012,04,23,08,19,10.10
2012,04,23,08,20,10.10
2012,04,23,08,21,10.10
2012,04,23,08,22,10.20
2012,04,23,08,23,10.30
2012,04,23,08,24,10.40
2012,04,23,08,25,10.40
2012,04,23,08,26,10.50
2012,04,23,08,27,10.60
2012,04,23,08,28,10.60
2012,04,23,08,29,10.70
2012,04,23,08,30,10.80
2012,04,23,08,31,10.90
2012,04,23,08,32,11.00
2012,04,23,08,33,11.10
2012,04,23,08,34,11.20
2012,04,23,08,35,11.20
2012,04,23,08,36,11.30
2012,04,23,08,37,11.40
2012,04,23,08,38,11.50
2012,04,23,08,39,11.60
2012,04,23,08,40,11.60
2012,04,23,08,41,11.70
2012,04,23,08,42,11.80
2012,04,23,08,43,11.90
2012,04,23,08,44,12.00
2012,04,23,08,45,12.00
2012,04,23,08,46,12.10
2012,04,23,08,47,12.00
2012,04,23,08,48,12.00
2012,04,23,08,49,12.10
2012,04,23,08,50,12.10
2012,04,23,08,51,12.10
2012,04,23,08,52,12.10
2012,04,23,08,53,12.10
2012,04,23,08,54,12.10
2012,04,23,08,55,12.10
2012,04,23,08,56,12.10
2012,04,23,08,57,12.20
2012,04,23,08,58,12.20
2012,04,23,08,59,12.20
2012,04,23,09,00,12.10
2012,04,23,09,01,12.10
2012,04,23,09,02,12.10
2012,04,23,09,03,12.10
2012,04,23,09,04,12.00
2012,04,23,09,05,12.00
2012,04,23,09,06,12.00
2012,04,23,09,07,12.00
2012,04,23,09,08,12.00
2012,04,23,09,09,12.00
2012,04,23,09,10,12.00
2012,04,23,09,11,12.00
2012,04,23,09,12,12.00
2012,04,23,09,13,12.10
2012,04,23,09,14,12.10
2012,04,23,09,15,12.10
2012,04,23,09,16,12.10
2012,04,23,09,17,12.10
2012,04,23,09,18,12.20
2012,04,23,09,19,12.30
2012,04,23,09,20,12.30
2012,04,23,09,21,12.40
2012,04,23,09,22,12.50
2012,04,23,09,23,12.60
2012,04,23,09,24,12.60
2012,04,23,09,25,12.70
2012,04,23,09,26,12.80
2012,04,23,09,27,12.80
2012,04,23,09,28,12.80
2012,04,23,09,29,12.80
2012,04,23,09,30,12.80
2012,04,23,09,31,12.90
2012,04,23,09,32,13.00
2012,04,23,09,33,13.00
2012,04,23,09,34,13.00
2012,04,23,09,35,13.10
2012,04,23,09,36,13.10
2012,04,23,09,37,13.20
2012,04,23,09,38,13.20
2012,04,23,09,39,13.30
2012,04,23,09,40,13.30
2012,04,23,09,41,13.30
2012,04,23,09,42,13.30
2012,04,23,09,43,13.30
2012,04,23,09,44,13.30
2012,04,23,09,45,13.30
2012,04,23,09,46,13.30
2012,04,23,09,47,13.30
2012,04,23,09,48,13.30
2012,04,23,09,49,13.30
2012,04,23,09,50,13.30
2012,04,23,09,51,13.30
2012,04,23,09,52,13.30
2012,04,23,09,53,13.30
2012,04,23,09,54,13.30
2012,04,23,09,55,13.40
2012,04,23,09,56,13.40
2012,04,23,09,57,13.50
2012,04,23,09,58,13.50
2012,04,23,09,59,13.60
2012,04,23,10,00,13.70
2012,04,23,10,01,13.70
2012,04,23,10,02,13.90
2012,04,23,10,03,14.00
2012,04,23,10,04,14.10
2012,04,23,10,05,14.20
2012,04,23,10,06,14.30
2012,04,23,10,07,14.40
2012,04,23,10,08,14.60
2012,04,23,10,09,14.80
2012,04,23,10,10,14.90
2012,04,23,10,11,15.00
2012,04,23,10,12,15.20
2012,04,23,10,13,15.20
2012,04,23,10,14,15.20
2012,04,23,10,15,15.20
2012,04,23,10,16,15.10
2012,04,23,10,17,15.00
2012,04,23,10,18,14.80
2012,04,23,10,19,14.80
2012,04,23,10,20,14.70
2012,04,23,10,21,14.60
2012,04,23,10,22,14.50
2012,04,23,10,23,14.40
2012,04,23,10,24,14.30
2012,04,23,10,25,14.40
2012,04,23,10,26,14.50
2012,04,23,10,27,14.60
2012,04,23,10,28,14.60
2012,04,23,10,29,14.70
2012,04,23,10,30,14.80
2012,04,23,10,31,14.90
2012,04,23,10,32,15.00
2012,04,23,10,33,15.10
2012,04,23,10,34,15.10
2012,04,23,10,35,15.10
2012,04,23,10,36,15.10
2012,04,23,10,37,15.10
2012,04,23,10,38,15.00
2012,04,23,10,39,14.90
2012,04,23,10,40,14.90
2012,04,23,10,41,14.90
2012,04,23,10,42,14.90
2012,04,23,10,43,14.90
2012,04,23,10,44,14.90
2012,04,23,10,45,14.90
2012,04,23,10,46,14.80
2012,04,23,10,47,14.80
2012,04,23,10,48,14.90
2012,04,23,10,49,15.00
2012,04,23,10,50,15.10
2012,04,23,10,51,15.20
2012,04,23,10,52,15.30
2012,04,23,10,53,15.40
2012,04,23,10,54,15.50
2012,04,23,10,55,15.50
2012,04,23,10,56,15.60
2012,04,23,10,57,15.70
2012,04,23,10,58,15.70
2012,04,23,10,59,15.60
2012,04,23,11,00,15.50
2012,04,23,11,01,15.40
2012,04,23,11,02,15.40
2012,04,23,11,03,15.40
2012,04,23,11,04,15.50
2012,04,23,11,05,15.50
2012,04,23,11,06,15.50
2012,04,23,11,07,15.60
2012,04,23,11,08,15.60
2012,04,23,11,09,15.60
2012,04,23,11,10,15.60
2012,04,23,11,11,15.60
2012,04,23,11,12,15.50
2012,04,23,11,13,15.40
2012,04,23,11,14,15.30
2012,04,23,11,15,15.30
2012,04,23,11,16,15.30
2012,04,23,11,17,15.30
2012,04,23,11,18,15.30
2012,04,23,11,19,15.40
2012,04,23,11,20,15.50
2012,04,23,11,21,15.60
2012,04,23,11,22,15.60
2012,04,23,11,23,15.70
2012,04,23,11,24,15.70
2012,04,23,11,25,15.80
2012,04,23,11,26,15.70
2012,04,23,11,27,15.70
2012,04,23,11,28,15.60
2012,04,23,11,29,15.50
2012,04,23,11,30,15.50
2012,04,23,11,31,15.50
2012,04,23,11,32,15.60
2012,04,23,11,33,15.70
2012,04,23,11,34,15.80
2012,04,23,11,35,15.80
2012,04,23,11,36,15.80
2012,04,23,11,37,15.90
2012,04,23,11,38,15.80
2012,04,23,11,39,15.70
2012,04,23,11,40,15.60
2012,04,23,11,41,15.60
2012,04,23,11,42,15.60
2012,04,23,11,43,15.70
2012,04,23,11,44,15.70
2012,04,23,11,45,15.70
2012,04,23,11,46,15.70
2012,04,23,11,47,15.60
2012,04,23,11,48,15.70
2012,04,23,11,49,15.70
2012,04,23,11,50,15.70
2012,04,23,11,51,15.80
2012,04,23,11,52,15.80
2012,04,23,11,53,15.80
2012,04,23,11,54,15.80
2012,04,23,11,55,15.80
2012,04,23,11,56,15.60
2012,04,23,11,57,15.60
2012,04,23,11,58,15.60
2012,04,23,11,59,15.50
2012,04,23,12,00,15.50
2012,04,23,12,01,15.50
2012,04,23,12,02,15.60
2012,04,23,12,03,15.60
2012,04,23,12,04,15.70
2012,04,23,12,05,15.70
2012,04,23,12,06,15.80
2012,04,23,12,07,16.00
2012,04,23,12,08,16.10
2012,04,23,12,09,16.20
2012,04,23,12,10,16.20
2012,04,23,12,11,16.10
2012,04,23,12,12,15.90
2012,04,23,12,13,15.70
2012,04,23,12,14,15.70
2012,04,23,12,15,15.80
2012,04,23,12,16,15.90
2012,04,23,12,17,16.10
2012,04,23,12,18,16.20
2012,04,23,12,19,16.20
2012,04,23,12,20,16.10
2012,04,23,12,21,16.20
2012,04,23,12,22,16.20
2012,04,23,12,23,16.30
2012,04,23,12,24,16.40
2012,04,23,12,25,16.60
2012,04,23,12,26,16.70
2012,04,23,12,27,16.80
2012,04,23,12,28,16.90
2012,04,23,12,29,16.90
2012,04,23,12,30,17.00
2012,04,23,12,31,17.10
2012,04,23,12,32,17.10
2012,04,23,12,33,17.10
2012,04,23,12,34,17.00
2012,04,23,12,35,16.90
2012,04,23,12,36,16.90
2012,04,23,12,37,16.90
2012,04,23,12,38,16.90
2012,04,23,12,39,16.90
2012,04,23,12,40,16.80
2012,04,23,12,41,16.80
2012,04,23,12,42,16.70
2012,04,23,12,43,16.70
2012,04,23,12,44,16.50
2012,04,23,12,45,16.40
2012,04,23,12,46,16.30
2012,04,23,12,47,16.40
2012,04,23,12,48,16.40
2012,04,23,12,49,16.40
2012,04,23,12,50,16.50
2012,04,23,12,51,16.60
2012,04,23,12,52,16.60
2012,04,23,12,53,16.60
2012,04,23,12,54,16.70
2012,04,23,12,55,16.70
2012,04,23,12,56,16.70
2012,04,23,12,57,16.80
2012,04,23,12,58,16.90
2012,04,23,12,59,17.10
2012,04,23,13,00,17.30
2012,04,23,13,01,17.30
2012,04,23,13,02,17.40
2012,04,23,13,03,17.40
2012,04,23,13,04,17.50
2012,04,23,13,05,17.50
2012,04,23,13,06,17.60
2012,04,23,13,07,17.70
2012,04,23,13,08,17.80
2012,04,23,13,09,17.80
2012,04,23,13,10,17.80
2012,04,23,13,11,17.80
2012,04,23,13,12,17.70
2012,04,23,13,13,17.70
2012,04,23,13,14,17.70
2012,04,23,13,15,17.60
2012,04,23,13,16,17.70
2012,04,23,13,17,17.70
2012,04,23,13,18,17.80
2012,04,23,13,19,17.90
2012,04,23,13,20,17.90
2012,04,23,13,21,17.90
2012,04,23,13,22,17.90
2012,04,23,13,23,17.80
2012,04,23,13,24,17.80
2012,04,23,13,25,17.80
2012,04,23,13,26,17.80
2012,04,23,13,27,17.80
2012,04,23,13,28,17.80
2012,04,23,13,29,17.70
2012,04,23,13,30,17.50
2012,04,23,13,31,17.40
2012,04,23,13,32,17.20
2012,04,23,13,33,17.00
2012,04,23,13,34,16.80
2012,04,23,13,35,16.80
2012,04,23,13,36,16.70
2012,04,23,13,37,16.70
2012,04,23,13,38,16.70
2012,04,23,13,39,16.70
2012,04,23,13,40,16.60
2012,04,23,13,41,16.60
2012,04,23,13,42,16.60
2012,04,23,13,43,16.70
2012,04,23,13,44,16.70
2012,04,23,13,45,16.70
2012,04,23,13,46,16.80
2012,04,23,13,47,16.90
2012,04,23,13,48,16.90
2012,04,23,13,49,16.90
2012,04,23,13,50,17.00
2012,04,23,13,51,17.00
2012,04,23,13,52,17.10
2012,04,23,13,53,17.10
2012,04,23,13,54,17.10
2012,04,23,13,55,17.10
2012,04,23,13,56,17.10
2012,04,23,13,57,17.20
2012,04,23,13,58,17.30
2012,04,23,13,59,17.30
2012,04,23,14,00,17.30
2012,04,23,14,01,17.30
2012,04,23,14,02,17.30
2012,04,23,14,03,17.10
2012,04,23,14,04,17.10
2012,04,23,14,05,17.00
2012,04,23,14,06,17.00
2012,04,23,14,07,17.00
2012,04,23,14,08,17.10
2012,04,23,14,09,17.10
2012,04,23,14,10,17.10
2012,04,23,14,11,17.10
2012,04,23,14,12,17.00
2012,04,23,14,13,16.90
2012,04,23,14,14,16.90
2012,04,23,14,15,16.90
2012,04,23,14,16,17.00
2012,04,23,14,17,17.00
2012,04,23,14,18,16.90
2012,04,23,14,19,16.90
2012,04,23,14,20,16.90
2012,04,23,14,21,17.00
2012,04,23,14,22,17.00
2012,04,23,14,23,17.00
2012,04,23,14,24,17.00
2012,04,23,14,25,16.90
2012,04,23,14,26,16.90
2012,04,23,14,27,16.80
2012,04,23,14,28,16.80
2012,04,23,14,29,16.70
2012,04,23,14,30,16.70
2012,04,23,14,31,16.80
2012,04,23,14,32,16.90
2012,04,23,14,33,17.00
2012,04,23,14,34,17.10
2012,04,23,14,35,17.30
2012,04,23,14,36,17.20
2012,04,23,14,37,17.10
2012,04,23,14,38,17.00
2012,04,23,14,39,17.00
2012,04,23,14,40,17.00
2012,04,23,14,41,17.00
2012,04,23,14,42,17.00
2012,04,23,14,43,17.10
2012,04,23,14,44,17.10
2012,04,23,14,45,17.10
2012,04,23,14,46,17.00
2012,04,23,14,47,16.90
2012,04,23,14,48,16.80
2012,04,23,14,49,16.80
2012,04,23,14,50,16.80
2012,04,23,14,51,16.70
2012,04,23,14,52,16.60
2012,04,23,14,53,16.60
2012,04,23,14,54,16.60
2012,04,23,14,55,16.60
2012,04,23,14,56,16.60
2012,04,23,14,57,16.60
2012,04,23,14,58,16.60
2012,04,23,14,59,16.60
2012,04,23,15,00,16.60
2012,04,23,15,01,16.40
2012,04,23,15,02,16.40
2012,04,23,15,03,16.40
2012,04,23,15,04,16.30
2012,04,23,15,05,16.30
2012,04,23,15,06,16.40
2012,04,23,15,07,16.50
2012,04,23,15,08,16.60
2012,04,23,15,09,16.60
2012,04,23,15,10,16.60
2012,04,23,15,11,16.70
2012,04,23,15,12,16.70
2012,04,23,15,13,16.70
2012,04,23,15,14,16.80
2012,04,23,15,15,16.80
2012,04,23,15,16,16.90
2012,04,23,15,17,17.00
2012,04,23,15,18,17.10
2012,04,23,15,19,17.10
2012,04,23,15,20,17.10
2012,04,23,15,21,17.10
2012,04,23,15,22,17.20
2012,04,23,15,23,17.30
2012,04,23,15,24,17.40
2012,04,23,15,25,17.50
2012,04,23,15,26,17.60
2012,04,23,15,27,17.70
2012,04,23,15,28,17.70
2012,04,23,15,29,17.70
2012,04,23,15,30,17.70
2012,04,23,15,31,17.60
2012,04,23,15,32,17.60
2012,04,23,15,33,17.60
2012,04,23,15,34,17.50
2012,04,23,15,35,17.50
2012,04,23,15,36,17.50
2012,04,23,15,37,17.50
2012,04,23,15,38,17.50
2012,04,23,15,39,17.50
2012,04,23,15,40,17.40
2012,04,23,15,41,17.30
2012,04,23,15,42,17.30
2012,04,23,15,43,17.30
2012,04,23,15,44,17.30
2012,04,23,15,45,17.30
2012,04,23,15,46,17.20
2012,04,23,15,47,17.20
2012,04,23,15,48,17.20
2012,04,23,15,49,17.30
2012,04,23,15,50,17.30
2012,04,23,15,51,17.30
2012,04,23,15,52,17.40
2012,04,23,15,53,17.40
2012,04,23,15,54,17.40
2012,04,23,15,55,17.30
2012,04,23,15,56,17.30
2012,04,23,15,57,17.30
2012,04,23,15,58,17.30
2012,04,23,15,59,17.10
2012,04,23,16,00,17.00
2012,04,23,16,01,16.90
2012,04,23,16,02,16.80
2012,04,23,16,03,16.70
2012,04,23,16,04,16.70
2012,04,23,16,05,16.60
2012,04,23,16,06,16.60
2012,04,23,16,07,16.60
2012,04,23,16,08,16.60
2012,04,23,16,09,16.60
2012,04,23,16,10,16.60
2012,04,23,16,11,16.60
2012,04,23,16,12,16.60
2012,04,23,16,13,16.40
2012,04,23,16,14,16.40
2012,04,23,16,15,16.40
2012,04,23,16,16,16.40
2012,04,23,16,17,16.40
2012,04,23,16,18,16.40
2012,04,23,16,19,16.40
2012,04,23,16,20,16.40
2012,04,23,16,21,16.40
2012,04,23,16,22,16.40
2012,04,23,16,23,16.50
2012,04,23,16,24,16.60
2012,04,23,16,25,16.60
2012,04,23,16,26,16.60
2012,04,23,16,27,16.70
2012,04,23,16,28,16.70
2012,04,23,16,29,16.70
2012,04,23,16,30,16.60
2012,04,23,16,31,16.60
2012,04,23,16,32,16.60
2012,04,23,16,33,16.60
2012,04,23,16,34,16.60
2012,04,23,16,35,16.40
2012,04,23,16,36,16.40
2012,04,23,16,37,16.40
2012,04,23,16,38,16.30
2012,04,23,16,39,16.30
2012,04,23,16,40,16.30
2012,04,23,16,41,16.40
2012,04,23,16,42,16.40
2012,04,23,16,43,16.40
2012,04,23,16,44,16.50
2012,04,23,16,45,16.60
2012,04,23,16,46,16.60
2012,04,23,16,47,16.60
2012,04,23,16,48,16.60
2012,04,23,16,49,16.60
2012,04,23,16,50,16.60
2012,04,23,16,51,16.60
2012,04,23,16,52,16.50
2012,04,23,16,53,16.40
2012,04,23,16,54,16.40
2012,04,23,16,55,16.30
2012,04,23,16,56,16.30
2012,04,23,16,57,16.30
2012,04,23,16,58,16.20
2012,04,23,16,59,16.20
2012,04,23,17,00,16.30
2012,04,23,17,01,16.20
2012,04,23,17,02,16.20
2012,04,23,17,03,16.30
2012,04,23,17,04,16.30
2012,04,23,17,05,16.30
2012,04,23,17,06,16.30
2012,04,23,17,07,16.40
2012,04,23,17,08,16.40
2012,04,23,17,09,16.40
2012,04,23,17,10,16.40
2012,04,23,17,11,16.50
2012,04,23,17,12,16.60
2012,04,23,17,13,16.60
2012,04,23,17,14,16.60
2012,04,23,17,15,16.60
2012,04,23,17,16,16.60
2012,04,23,17,17,16.60
2012,04,23,17,18,16.60
2012,04,23,17,19,16.50
2012,04,23,17,20,16.50
2012,04,23,17,21,16.50
2012,04,23,17,22,16.40
2012,04,23,17,23,16.40
2012,04,23,17,24,16.40
2012,04,23,17,25,16.40
2012,04,23,17,26,16.40
2012,04,23,17,27,16.40
2012,04,23,17,28,16.40
2012,04,23,17,29,16.40
2012,04,23,17,30,16.40
2012,04,23,17,31,16.40
2012,04,23,17,32,16.40
2012,04,23,17,33,16.50
2012,04,23,17,34,16.60
2012,04,23,17,35,16.70
2012,04,23,17,36,16.70
2012,04,23,17,37,16.70
2012,04,23,17,38,16.80
2012,04,23,17,39,16.90
2012,04,23,17,40,16.90
2012,04,23,17,41,17.00
2012,04,23,17,42,17.10
2012,04,23,17,43,17.30
2012,04,23,17,44,17.30
2012,04,23,17,45,17.40
2012,04,23,17,46,17.40
2012,04,23,17,47,17.40
2012,04,23,17,48,17.40
2012,04,23,17,49,17.40
2012,04,23,17,50,17.40
2012,04,23,17,51,17.40
2012,04,23,17,52,17.40
2012,04,23,17,53,17.40
2012,04,23,17,54,17.40
2012,04,23,17,55,17.40
